Location: ????????
(55.7667°N, 37.4833°E)
Time: 13:45:11
(UTC+00:00)

NPP - Pass Details

Date: 19 May 2025
Orbit: 826 x 827 km, 98.8° (Epoch: 21 June)

Event Time Altitude Azimuth Distance (km) Brightness Sun altitude
Rises 23:29:30 0° 17° (NNE) 3,382 8.7 -9.9°
Reaches altitude 10° 23:31:53 10° 19° (NNE) 2,444 7.6 -9.7°
Maximum altitude 23:37:18 77° 105° (ESE) 855 3.8 -9.3°
Drops below altitude 10° 23:42:42 10° 192° (SSW) 2,428 5.5 -9.0°
Enters shadow 23:42:50 - 192° (SSW) 2,484 5.5 -8.9°
